• Em Portugal
  • Lista de países
  • Para 7 dias
  • Temperatura da água
  • Mapas de satélite
  • Mapa do tempo
  • Widgets de tempo
  • user-avatar
    Iniciar Sessão

    Previsão horária em Nagano

    Hoje, 26 Setembro, Quarta-feira

    Tempo Temperatura Precipitação Vento Pressão Humidade
    00:00 +16°C° 0.1 mm 1 m/s 695 mmHg 94%
    01:00 +16°C° 0 mm 1 m/s 695 mmHg 94%
    02:00 +15°C° 0 mm 1 m/s 695 mmHg 94%
    03:00 +15°C° 0 mm 1 m/s 696 mmHg 93%
    04:00 +15°C° 0 mm 1 m/s 696 mmHg 94%
    05:00 +14°C° 0 mm 1 m/s 696 mmHg 94%
    06:00 +14°C° 0 mm 1 m/s 696 mmHg 94%
    07:00 +16°C° 0 mm 1 m/s 696 mmHg 88%
    08:00 +18°C° 0 mm 1 m/s 696 mmHg 82%
    09:00 +19°C° 0 mm 1 m/s 697 mmHg 77%
    10:00 +20°C° 0 mm 1 m/s 697 mmHg 73%
    11:00 +21°C° 0 mm 1 m/s 697 mmHg 69%
    12:00 +22°C° 0 mm 1 m/s 697 mmHg 66%
    13:00 +22°C° 0 mm 1 m/s 696 mmHg 67%
    14:00 +21°C° 0 mm 2 m/s 696 mmHg 67%
    15:00 +22°C° 0 mm 1 m/s 696 mmHg 67%
    16:00 +21°C° 0.1 mm 1 m/s 696 mmHg 72%
    17:00 +19°C° 0.1 mm 1 m/s 695 mmHg 78%
    18:00 +18°C° 0.1 mm 1 m/s 695 mmHg 83%
    19:00 +16°C° 1.4 mm 1 m/s 695 mmHg 86%
    20:00 +16°C° 1.4 mm 1 m/s 695 mmHg 89%
    21:00 +16°C° 1.4 mm 1 m/s 695 mmHg 92%
    22:00 +15°C° 2.8 mm 1 m/s 695 mmHg 93%
    23:00 +15°C° 2.8 mm 1 m/s 695 mmHg 93%

    Amanhã, 27 Setembro, Quinta-feira

    Tempo Temperatura Precipitação Vento Pressão Humidade
    00:00 +15°C° 2.8 mm 1 m/s 695 mmHg 94%
    01:00 +15°C° 2.4 mm 1 m/s 694 mmHg 94%
    02:00 +15°C° 2.4 mm 1 m/s 694 mmHg 94%
    03:00 +15°C° 2.4 mm 1 m/s 694 mmHg 94%
    04:00 +15°C° 1.1 mm 1 m/s 694 mmHg 94%
    05:00 +15°C° 1.1 mm 1 m/s 694 mmHg 94%
    06:00 +15°C° 1.1 mm 1 m/s 694 mmHg 94%
    07:00 +15°C° 0.7 mm 1 m/s 694 mmHg 93%
    08:00 +15°C° 0.7 mm 1 m/s 694 mmHg 93%
    09:00 +16°C° 0.7 mm 1 m/s 694 mmHg 92%
    10:00 +18°C° 0.1 mm 1 m/s 694 mmHg 86%
    11:00 +19°C° 0.1 mm 1 m/s 694 mmHg 80%
    12:00 +21°C° 0.1 mm 1 m/s 694 mmHg 74%
    13:00 +21°C° 0 mm 1 m/s 694 mmHg 73%
    14:00 +21°C° 0 mm 1 m/s 693 mmHg 73%
    15:00 +21°C° 0 mm 1 m/s 693 mmHg 73%
    16:00 +19°C° 0 mm 1 m/s 693 mmHg 78%
    17:00 +18°C° 0 mm 1 m/s 693 mmHg 83%
    18:00 +16°C° 0 mm 1 m/s 693 mmHg 88%
    19:00 +15°C° 0 mm 1 m/s 694 mmHg 89%
    20:00 +15°C° 0 mm 1 m/s 694 mmHg 91%
    21:00 +14°C° 0 mm 0 m/s 694 mmHg 92%
    22:00 +13°C° 0 mm 0 m/s 694 mmHg 92%
    23:00 +13°C° 0 mm 0 m/s 694 mmHg 92%

    Depois de amanhã, 28 Setembro, Sexta-feira

    Tempo Temperatura Precipitação Vento Pressão Humidade
    00:00 +13°C° 0 mm 0 m/s 694 mmHg 92%
    01:00 +14°C° 0 mm 1 m/s 694 mmHg 92%
    02:00 +13°C° 0 mm 1 m/s 694 mmHg 92%
    03:00 +13°C° 0 mm 1 m/s 694 mmHg 92%
    04:00 +13°C° 0 mm 1 m/s 694 mmHg 92%
    05:00 +13°C° 0 mm 1 m/s 695 mmHg 92%
    06:00 +12°C° 0 mm 1 m/s 695 mmHg 91%
    07:00 +15°C° 0 mm 1 m/s 696 mmHg 83%
    08:00 +18°C° 0 mm 1 m/s 696 mmHg 74%
    09:00 +20°C° 0 mm 1 m/s 697 mmHg 65%
    10:00 +21°C° 0 mm 1 m/s 697 mmHg 58%
    11:00 +23°C° 0 mm 1 m/s 697 mmHg 52%
    12:00 +25°C° 0 mm 1 m/s 697 mmHg 45%
    13:00 +24°C° 0 mm 1 m/s 697 mmHg 46%
    14:00 +24°C° 0 mm 1 m/s 697 mmHg 48%
    15:00 +24°C° 0 mm 1 m/s 697 mmHg 49%
    16:00 +22°C° 0 mm 1 m/s 697 mmHg 60%
    17:00 +19°C° 0 mm 1 m/s 697 mmHg 70%
    18:00 +16°C° 0 mm 1 m/s 697 mmHg 80%
    19:00 +16°C° 0 mm 1 m/s 697 mmHg 83%
    20:00 +15°C° 0 mm 1 m/s 697 mmHg 85%
    21:00 +15°C° 0 mm 1 m/s 697 mmHg 87%
    22:00 +14°C° 0 mm 1 m/s 697 mmHg 87%
    23:00 +14°C° 0 mm 1 m/s 697 mmHg 87%

    29 Setembro, Sábado

    Tempo Temperatura Precipitação Vento Pressão Humidade
    00:00 +14°C° 0 mm 1 m/s 696 mmHg 87%
    01:00 +14°C° 0 mm 1 m/s 696 mmHg 86%
    02:00 +14°C° 0 mm 1 m/s 696 mmHg 86%
    03:00 +14°C° 0 mm 1 m/s 696 mmHg 85%
    04:00 +14°C° 0 mm 1 m/s 696 mmHg 84%
    05:00 +14°C° 0 mm 1 m/s 696 mmHg 83%
    06:00 +15°C° 0 mm 1 m/s 696 mmHg 81%
    07:00 +16°C° 0.1 mm 1 m/s 696 mmHg 79%
    08:00 +18°C° 0.1 mm 1 m/s 697 mmHg 77%
    09:00 +19°C° 0.1 mm 1 m/s 697 mmHg 75%
    10:00 +18°C° 1 mm 1 m/s 697 mmHg 80%
    11:00 +16°C° 1 mm 1 m/s 696 mmHg 84%
    12:00 +16°C° 1 mm 1 m/s 696 mmHg 88%
    13:00 +15°C° 2.7 mm 1 m/s 695 mmHg 89%
    14:00 +15°C° 2.7 mm 1 m/s 695 mmHg 90%
    15:00 +15°C° 2.7 mm 1 m/s 694 mmHg 92%
    16:00 +15°C° 2.8 mm 1 m/s 694 mmHg 92%
    17:00 +15°C° 2.8 mm 1 m/s 694 mmHg 93%
    18:00 +15°C° 2.8 mm 1 m/s 694 mmHg 93%
    19:00 +15°C° 2.5 mm 2 m/s 694 mmHg 93%
    20:00 +15°C° 2.5 mm 2 m/s 694 mmHg 94%
    21:00 +15°C° 2.5 mm 2 m/s 694 mmHg 94%
    22:00 +16°C° 1.4 mm 2 m/s 693 mmHg 94%
    23:00 +16°C° 1.4 mm 2 m/s 693 mmHg 94%

    30 Setembro, Domingo

    Tempo Temperatura Precipitação Vento Pressão Humidade
    00:00 +16°C° 1.4 mm 2 m/s 692 mmHg 94%
    01:00 +17°C° 0.7 mm 2 m/s 691 mmHg 94%
    02:00 +17°C° 0.7 mm 2 m/s 691 mmHg 94%
    03:00 +17°C° 0.7 mm 2 m/s 690 mmHg 94%
    04:00 +17°C° 0.2 mm 2 m/s 690 mmHg 95%
    05:00 +18°C° 0.2 mm 2 m/s 690 mmHg 95%
    06:00 +18°C° 0.2 mm 2 m/s 690 mmHg 95%
    07:00 +19°C° 0.1 mm 2 m/s 690 mmHg 92%
    08:00 +20°C° 0.1 mm 2 m/s 690 mmHg 88%
    09:00 +23°C° 0.1 mm 2 m/s 690 mmHg 85%
    10:00 +24°C° 0.1 mm 3 m/s 690 mmHg 80%
    11:00 +25°C° 0.1 mm 3 m/s 689 mmHg 74%
    12:00 +26°C° 0.1 mm 3 m/s 689 mmHg 69%
    13:00 +25°C° 0.2 mm 3 m/s 688 mmHg 73%
    14:00 +25°C° 0.2 mm 3 m/s 686 mmHg 76%
    15:00 +24°C° 0.2 mm 3 m/s 685 mmHg 80%
    16:00 +22°C° 0.3 mm 3 m/s 684 mmHg 84%
    17:00 +21°C° 0.3 mm 3 m/s 683 mmHg 87%
    18:00 +21°C° 0.3 mm 3 m/s 683 mmHg 90%
    19:00 +21°C° 1.5 mm 4 m/s 679 mmHg 91%
    20:00 +21°C° 1.5 mm 6 m/s 675 mmHg 92%
    21:00 +21°C° 1.5 mm 7 m/s 672 mmHg 92%
    22:00 +21°C° 7.6 mm 8 m/s 671 mmHg 92%
    23:00 +21°C° 7.6 mm 9 m/s 671 mmHg 91%

    1 Outubro, Segunda-feira

    Tempo Temperatura Precipitação Vento Pressão Humidade
    00:00 +22°C° 7.6 mm 11 m/s 670 mmHg 90%
    01:00 +21°C° 0.5 mm 9 m/s 674 mmHg 90%
    02:00 +20°C° 0.5 mm 6 m/s 678 mmHg 89%
    03:00 +19°C° 0.5 mm 4 m/s 682 mmHg 88%
    04:00 +18°C° 0.1 mm 4 m/s 682 mmHg 88%
    05:00 +17°C° 0.1 mm 3 m/s 683 mmHg 87%
    06:00 +17°C° 0.1 mm 3 m/s 684 mmHg 87%
    07:00 +17°C° 0 mm 3 m/s 685 mmHg 78%
    08:00 +18°C° 0 mm 3 m/s 685 mmHg 69%
    09:00 +19°C° 0 mm 4 m/s 686 mmHg 60%
    10:00 +20°C° 0 mm 4 m/s 686 mmHg 53%
    11:00 +21°C° 0 mm 4 m/s 687 mmHg 47%
    12:00 +22°C° 0 mm 4 m/s 687 mmHg 41%
    13:00 +21°C° 0 mm 4 m/s 687 mmHg 44%
    14:00 +20°C° 0 mm 4 m/s 687 mmHg 47%
    15:00 +20°C° 0 mm 4 m/s 688 mmHg 50%
    16:00 +18°C° 0 mm 3 m/s 688 mmHg 56%
    17:00 +16°C° 0 mm 2 m/s 688 mmHg 62%
    18:00 +14°C° 0 mm 2 m/s 689 mmHg 68%
    19:00 +13°C° 0 mm 2 m/s 689 mmHg 71%
    20:00 +13°C° 0 mm 1 m/s 690 mmHg 73%
    21:00 +12°C° 0 mm 1 m/s 690 mmHg 75%
    22:00 +12°C° 0 mm 1 m/s 690 mmHg 74%
    23:00 +11°C° 0 mm 1 m/s 690 mmHg 73%
    Mostrar mais